EZY76FD EGCC-EGHQ

Flight info

Callsign EZY76FD
Flight time 0h 50m
Altitude 23000
Route ASMIM DCT NOKIN P17 ZESPE/N0362F220 N92 EXMOR
Aircraft A320/M-SDE2E3FGHIJ1RWXYZ/LB1

Departure

Time 2026-04-30 21:59
Airport Manchester Airport (EGCC)

Arrival

Time 2026-04-30 22:49
Airport Cornwall Airport Newquay (EGHQ)
Time Latitude Longitude Altitude Speed Heading
2026-04-30 21:30 53.36920 -2.28743 255 ft 0 kts 135°
2026-04-30 21:48 53.36934 -2.28767 255 ft 4 kts 135°
2026-04-30 21:48 53.36948 -2.28789 255 ft 4 kts 176°
2026-04-30 21:48 53.36967 -2.28774 255 ft 3 kts 225°
2026-04-30 21:48 53.36958 -2.28788 255 ft 4 kts 225°
2026-04-30 21:49 53.36953 -2.28796 255 ft 0 kts 225°
2026-04-30 21:51 53.36921 -2.28850 255 ft 10 kts 225°
2026-04-30 21:51 53.36871 -2.28934 255 ft 14 kts 225°
2026-04-30 21:52 53.36792 -2.29027 255 ft 13 kts 201°
2026-04-30 21:52 53.36716 -2.28991 255 ft 11 kts 137°
2026-04-30 21:52 53.36642 -2.28895 255 ft 14 kts 153°
2026-04-30 21:52 53.36580 -2.28782 255 ft 13 kts 122°
2026-04-30 21:53 53.36515 -2.28649 255 ft 15 kts 134°
2026-04-30 21:53 53.36446 -2.28533 255 ft 13 kts 136°
2026-04-30 21:53 53.36356 -2.28469 255 ft 18 kts 161°
2026-04-30 21:53 53.36267 -2.28342 255 ft 16 kts 135°
2026-04-30 21:54 53.36194 -2.28219 255 ft 14 kts 135°
2026-04-30 21:54 53.36122 -2.28097 255 ft 16 kts 136°
2026-04-30 21:54 53.36043 -2.27977 255 ft 14 kts 139°
2026-04-30 21:54 53.35971 -2.27877 255 ft 13 kts 145°
2026-04-30 21:55 53.35877 -2.27852 254 ft 20 kts 185°
2026-04-30 21:55 53.35726 -2.27879 246 ft 22 kts 186°
2026-04-30 21:55 53.35600 -2.27949 239 ft 18 kts 227°
2026-04-30 21:55 53.35506 -2.28111 236 ft 21 kts 211°
2026-04-30 21:56 53.35372 -2.28171 235 ft 20 kts 191°
2026-04-30 21:56 53.35243 -2.28284 232 ft 22 kts 223°
2026-04-30 21:56 53.35145 -2.28484 226 ft 24 kts 231°
2026-04-30 21:56 53.35076 -2.28628 229 ft 11 kts 231°
2026-04-30 21:57 53.35001 -2.28766 227 ft 23 kts 227°
2026-04-30 21:57 53.34909 -2.28928 224 ft 17 kts 226°
2026-04-30 21:57 53.34815 -2.29071 218 ft 19 kts 204°
2026-04-30 21:57 53.34705 -2.29036 220 ft 12 kts 148°
2026-04-30 21:58 53.34680 -2.28934 224 ft 8 kts 68°
2026-04-30 21:58 53.34706 -2.28875 221 ft 7 kts 51°
2026-04-30 21:58 53.34839 -2.28603 230 ft 65 kts 50°
2026-04-30 21:58 53.35265 -2.27724 238 ft 127 kts 51°
2026-04-30 21:59 53.35922 -2.26381 362 ft 164 kts 50°
2026-04-30 21:59 53.36651 -2.24893 996 ft 167 kts 54°
2026-04-30 21:59 53.37444 -2.23398 1609 ft 176 kts 56°
2026-04-30 22:00 53.39618 -2.20620 2224 ft 239 kts
2026-04-30 22:00 53.42624 -2.23453 3101 ft 276 kts 295°
2026-04-30 22:00 53.43390 -2.26390 4028 ft 275 kts 288°
2026-04-30 22:01 53.44105 -2.29363 5045 ft 275 kts 289°
2026-04-30 22:01 53.44821 -2.32353 5939 ft 279 kts 289°
2026-04-30 22:01 53.45546 -2.35408 6749 ft 284 kts 289°
2026-04-30 22:01 53.46277 -2.38521 7527 ft 289 kts 288°
2026-04-30 22:02 53.46805 -2.41730 8317 ft 290 kts 274°
2026-04-30 22:02 53.46823 -2.45144 9139 ft 289 kts 258°
2026-04-30 22:02 53.46472 -2.48421 9959 ft 290 kts 255°
2026-04-30 22:02 53.46089 -2.51790 10560 ft 302 kts 255°
2026-04-30 22:03 53.45679 -2.55383 10812 ft 325 kts 255°
2026-04-30 22:03 53.45149 -2.59122 11367 ft 331 kts 246°
2026-04-30 22:03 53.44111 -2.62605 12106 ft 329 kts 232°
2026-04-30 22:03 53.42640 -2.65455 12852 ft 327 kts 218°
2026-04-30 22:04 53.40784 -2.67607 13612 ft 324 kts 204°
2026-04-30 22:04 53.38700 -2.69026 14320 ft 324 kts 197°
2026-04-30 22:04 53.34441 -2.71665 15610 ft 329 kts 197°
2026-04-30 22:05 53.32284 -2.73006 16229 ft 332 kts 197°
2026-04-30 22:05 53.30108 -2.74358 16870 ft 335 kts 197°
2026-04-30 22:05 53.27916 -2.75724 17501 ft 338 kts 197°
2026-04-30 22:05 53.25701 -2.77105 18106 ft 341 kts 197°
2026-04-30 22:06 53.23469 -2.78495 18679 ft 344 kts 197°
2026-04-30 22:06 53.18948 -2.81303 19748 ft 349 kts 197°
2026-04-30 22:06 53.16666 -2.82716 20304 ft 351 kts 197°
2026-04-30 22:07 53.14368 -2.84134 20836 ft 353 kts 197°
2026-04-30 22:07 53.12059 -2.85563 21361 ft 355 kts 197°
2026-04-30 22:07 53.09723 -2.86932 21876 ft 356 kts 192°
2026-04-30 22:07 53.07292 -2.87639 22378 ft 355 kts 181°
2026-04-30 22:08 53.04825 -2.87519 22877 ft 355 kts 171°
2026-04-30 22:08 53.02380 -2.86854 23152 ft 357 kts 170°
2026-04-30 22:08 52.99971 -2.86187 23195 ft 343 kts 170°
2026-04-30 22:08 52.97633 -2.85548 23198 ft 338 kts 170°
2026-04-30 22:09 52.95317 -2.84921 23197 ft 337 kts 170°
2026-04-30 22:09 52.93029 -2.84307 23200 ft 337 kts 170°
2026-04-30 22:09 52.90709 -2.83685 23195 ft 337 kts 170°
2026-04-30 22:09 52.88398 -2.83063 23195 ft 337 kts 170°
2026-04-30 22:10 52.86079 -2.82438 23201 ft 337 kts 170°
2026-04-30 22:10 52.83765 -2.81814 23201 ft 337 kts 170°
2026-04-30 22:10 52.81450 -2.81188 23193 ft 337 kts 170°
2026-04-30 22:10 52.79137 -2.80563 23191 ft 337 kts 170°
2026-04-30 22:11 52.74512 -2.79317 23188 ft 337 kts 170°
2026-04-30 22:11 52.72203 -2.78695 23191 ft 336 kts 169°
2026-04-30 22:11 52.69893 -2.78075 23188 ft 336 kts 170°
2026-04-30 22:12 52.67581 -2.77459 23185 ft 336 kts 170°
2026-04-30 22:12 52.65272 -2.76844 23184 ft 336 kts 170°
2026-04-30 22:12 52.62957 -2.76227 23183 ft 336 kts 170°
2026-04-30 22:12 52.60630 -2.75847 23182 ft 337 kts 178°
2026-04-30 22:13 52.58281 -2.76033 23182 ft 338 kts 181°
2026-04-30 22:13 52.55931 -2.76247 23180 ft 338 kts 181°
2026-04-30 22:13 52.53583 -2.76453 23178 ft 338 kts 181°
2026-04-30 22:13 52.51229 -2.76659 23178 ft 339 kts 181°
2026-04-30 22:14 52.48879 -2.76863 23175 ft 339 kts 181°
2026-04-30 22:14 52.46524 -2.77064 23172 ft 339 kts 181°
2026-04-30 22:14 52.44168 -2.77264 23170 ft 339 kts 181°
2026-04-30 22:14 52.41810 -2.77467 23171 ft 339 kts 181°
2026-04-30 22:15 52.39452 -2.77672 23169 ft 340 kts 181°
2026-04-30 22:15 52.37122 -2.77874 23170 ft 340 kts 181°
2026-04-30 22:15 52.34730 -2.78078 23171 ft 340 kts 181°
2026-04-30 22:15 52.32400 -2.78276 23171 ft 340 kts 181°
2026-04-30 22:16 52.30035 -2.78478 23172 ft 340 kts 181°
2026-04-30 22:16 52.27672 -2.78684 23173 ft 340 kts 181°
2026-04-30 22:17 52.20586 -2.79302 23176 ft 340 kts 181°
2026-04-30 22:17 52.18221 -2.79506 23175 ft 340 kts 181°
2026-04-30 22:17 52.13495 -2.79901 23170 ft 340 kts 181°
2026-04-30 22:18 52.11131 -2.80096 23170 ft 340 kts 181°
2026-04-30 22:18 52.06403 -2.80492 23171 ft 340 kts 181°
2026-04-30 22:19 52.01670 -2.80904 23170 ft 341 kts 181°
2026-04-30 22:19 51.99301 -2.81105 23166 ft 341 kts 181°
2026-04-30 22:19 51.94554 -2.81497 23210 ft 342 kts 181°
2026-04-30 22:20 51.92178 -2.81697 23217 ft 342 kts 181°
2026-04-30 22:20 51.87422 -2.82103 23235 ft 342 kts 181°
2026-04-30 22:20 51.85044 -2.82325 23242 ft 343 kts 182°
2026-04-30 22:21 51.82670 -2.82708 23252 ft 343 kts 185°
2026-04-30 22:21 51.80302 -2.83214 23261 ft 344 kts 186°
2026-04-30 22:21 51.77933 -2.83772 23263 ft 344 kts 186°
2026-04-30 22:21 51.75572 -2.84337 23262 ft 344 kts 186°
2026-04-30 22:22 51.73200 -2.84890 23258 ft 344 kts 186°
2026-04-30 22:22 51.70824 -2.85424 23255 ft 345 kts 185°
2026-04-30 22:22 51.68442 -2.85943 23254 ft 345 kts 185°
2026-04-30 22:22 51.66060 -2.86451 23255 ft 346 kts 185°
2026-04-30 22:23 51.63707 -2.86949 23251 ft 346 kts 185°
2026-04-30 22:23 51.61321 -2.87454 23244 ft 346 kts 185°
2026-04-30 22:23 51.58930 -2.87956 23237 ft 346 kts 185°
2026-04-30 22:23 51.56561 -2.88699 23225 ft 349 kts 194°
2026-04-30 22:24 51.54317 -2.90221 23224 ft 353 kts 206°
2026-04-30 22:24 51.52296 -2.92487 23204 ft 357 kts 215°
2026-04-30 22:24 51.50358 -2.94993 23190 ft 358 kts 215°
2026-04-30 22:24 51.48410 -2.97488 23133 ft 359 kts 214°
2026-04-30 22:25 51.46454 -2.99978 23136 ft 359 kts 214°
2026-04-30 22:25 51.44495 -3.02455 23139 ft 359 kts 214°
2026-04-30 22:25 51.42529 -3.04937 23139 ft 360 kts 214°
2026-04-30 22:25 51.40564 -3.07420 23141 ft 360 kts 214°
2026-04-30 22:26 51.37300 -3.11545 23146 ft 360 kts 214°
2026-04-30 22:26 51.35333 -3.14026 23149 ft 360 kts 214°
2026-04-30 22:26 51.33364 -3.16503 23151 ft 360 kts 214°
2026-04-30 22:27 51.31395 -3.18979 23130 ft 360 kts 214°
2026-04-30 22:27 51.29426 -3.21453 23138 ft 360 kts 214°
2026-04-30 22:27 51.25488 -3.26399 23132 ft 360 kts 214°
2026-04-30 22:28 51.21544 -3.31331 23129 ft 360 kts 214°
2026-04-30 22:28 51.19571 -3.33800 23158 ft 360 kts 215°
2026-04-30 22:29 51.15130 -3.43562 23149 ft 369 kts 237°
2026-04-30 22:29 51.13881 -3.47124 23146 ft 368 kts 236°
2026-04-30 22:30 51.08944 -3.60856 22269 ft 345 kts 236°
2026-04-30 22:31 51.05382 -3.70685 21467 ft 337 kts 236°
2026-04-30 22:32 51.01915 -3.80235 20271 ft 332 kts 235°
2026-04-30 22:32 50.99614 -3.86577 19443 ft 330 kts 235°
2026-04-30 22:33 50.96173 -3.96018 18201 ft 329 kts 235°
2026-04-30 22:33 50.93889 -4.02252 17389 ft 325 kts 235°
2026-04-30 22:34 50.90500 -4.11483 16221 ft 321 kts 235°
2026-04-30 22:35 50.88263 -4.17569 15468 ft 319 kts 235°
2026-04-30 22:36 50.83797 -4.29650 13958 ft 317 kts 234°
2026-04-30 22:36 50.82681 -4.32656 13543 ft 316 kts 234°
2026-04-30 22:37 50.79375 -4.41550 12328 ft 312 kts 234°
2026-04-30 22:37 50.78275 -4.44507 11881 ft 312 kts 235°
2026-04-30 22:37 50.76089 -4.50382 11097 ft 308 kts 235°
2026-04-30 22:38 50.73920 -4.56190 10340 ft 304 kts 235°
2026-04-30 22:38 50.71843 -4.61748 10004 ft 287 kts 235°
2026-04-30 22:39 50.70847 -4.64403 9675 ft 283 kts 235°
2026-04-30 22:39 50.67887 -4.72274 7964 ft 274 kts 234°
2026-04-30 22:40 50.64985 -4.79995 6739 ft 273 kts 236°
2026-04-30 22:41 50.64676 -4.89060 5899 ft 282 kts 270°
2026-04-30 22:41 50.64994 -4.95186 5391 ft 279 kts 270°
2026-04-30 22:42 50.65615 -5.07260 4388 ft 274 kts 270°
2026-04-30 22:43 50.64903 -5.12683 3971 ft 242 kts 236°
2026-04-30 22:43 50.62697 -5.16249 3569 ft 219 kts 215°
2026-04-30 22:44 50.60368 -5.19186 3176 ft 212 kts 214°
2026-04-30 22:45 50.55060 -5.20558 2474 ft 201 kts 170°
2026-04-30 22:45 50.52424 -5.19641 2212 ft 189 kts 159°
2026-04-30 22:46 50.50558 -5.16844 2024 ft 192 kts 124°
2026-04-30 22:47 50.48298 -5.10781 1763 ft 144 kts 124°
2026-04-30 22:47 50.47298 -5.08115 1399 ft 137 kts 124°
2026-04-30 22:48 50.46346 -5.05579 1017 ft 133 kts 123°
2026-04-30 22:49 50.44955 -5.01870 468 ft 131 kts 123°
2026-04-30 22:49 50.44072 -4.99519 332 ft 12 kts 120°
2026-04-30 22:50 50.44241 -4.99487 336 ft 12 kts 355°
2026-04-30 22:51 50.44320 -4.99633 334 ft 14 kts 300°
2026-04-30 22:51 50.44455 -4.99996 337 ft 18 kts 300°
2026-04-30 22:52 50.44519 -5.00166 338 ft 17 kts 300°
2026-04-30 22:52 50.44625 -5.00438 329 ft 7 kts 329°
2026-04-30 22:53 50.44644 -5.00441 330 ft 1 kts 333°
2026-04-30 22:53 50.44659 -5.00525 329 ft 4 kts 325°
2026-04-30 22:53 50.44678 -5.00504 328 ft 4 kts 68°
2026-04-30 22:54 50.44681 -5.00445 325 ft 0 kts 101°